STARLINK-11430, 62916

Orbit data source: Space-Track

STARLINK-11430, 62916 is a payload satellite owned by SpaceX/Seattle (US) in LEO that was launched on Sat, 08 Feb 2025 UTC via an FALCON 9 launch vehicle from the Air Force Eastern Test Range (AFETR). Payload-class satellites include a variety of spacecraft equipped with specific instruments for various scientific and technological missions. These include communications satellites like Starlink; space stations such as the ISS; scientific satellites like the Hubble; Earth observation satellites from companies like Planet Labs, Umbra, and HawkEye 360; GPS; miniature CubeSats for education and research; and military/defense satellites.

Loading next visibility...
Identifier
62916, 2025-027K
Orbit
LEO
Last TLE update
1 day ago
Origin
Manufacturer
SpaceX/Seattle
Mission
Operational Commercial Communications
Bus & Motor
STARLINK V2M, Unknown motor
Mass
730 kg wet, ~700 kg dry
Launch date (UTC)
2025-02-08 (3 months ago)
Launch vehicle
FALCON 9
Launch site
Air Force Eastern Test Range (AFETR)
Object type
Payload
Rocket body
Debris
Shape & HBR
Box + 2 Pan, 29 m
Radar Cross Section
36.964 m², Large (>1 m²)

Expand to show TLE details & history

TLE from 1 day ago
0 STARLINK-11430
1 62916U 25027K   25128.08422812  .00001487  00000-0  15080-4 0  9993
2 62916  42.9994  30.1737 0001210 271.2208  88.8521 15.70833176 15122
Epoch: 2025-05-08T02:01Z
Definitive object data (Epoch: 2025-05-08T02:01:17.309Z)
Latitude
-0.00002°
Longitude
133.69175°
Altitude
356.269 km
Speed
7.697 km/s
True Right ascension
02h 00m 41s
True Declination
0° 00' 00"
Sunlit
Object was in daylight at TLE epoch
Visualization TLE readout
Latitude
0.77382°
Longitude
127.2303°
Altitude
356.057 km
Speed
7.698 km/s
Apparent Right ascension
02h 14m 52s
Apparent Declination
-19° 15' 57"
Sunlit
Object is in daylight
Visualization observer readout
Local Sidereal Time
15:10:07
Azimuth
33.927° NE
Elevation
-66.178°
Doppler factor
1
Orbital elements
Apogee altitude
359.311 km
Perigee altitude
357.681 km
Semi-major axis
6,736.633 km
Eccentricity
0.000121
Inclination
42.9994°
RAAN
30.1737°
Arg. of periapsis
271.2208°
True anomaly
88.86596°
Mean anomaly
88.8521°
Eccentric anomaly
88.85903°
Mean motion
3.92535 °/min
BSTAR
0.00001508
Orbital period
91.71 mins
Loading maneuver chart data...
Loading SW <> Apogee altitude chart data...
Loading historical data...
Loading historical data...
Loading historical data...
Loading historical data...
Loading historical data...
Loading historical data...
Loading historical data...

STARLINK-11430 Visibility forecast

Observer location: undefined°, undefined°

Span
Click to sort rows by Start time (UTC) header in descending order
Start Az.
Max El. time (UTC)
Max El. Az.
Max El.
End time (UTC)
End Az.
4 mins2025-05-09 21:00:12.130Z237.737° WSW2025-05-09 21:02:12.130Z112.755° SE41.206°2025-05-09 21:04:12.130Z76.244° E
4 mins2025-05-10 00:13:12.130Z302.708° NW2025-05-10 00:14:12.130Z346.204° N40.251°2025-05-10 00:17:12.130Z94.146° ESE
|